Location: Nairn
(57.5833°N, 3.8667°W)
Time: 16:45:37
(UTC+00:00)

Cosmos 1461 - Pass Details

Date: 07 August 2020
Orbit: 501 x 665 km, 65.0° (Epoch: 23 September)

Event Time Altitude Azimuth Distance (km) Brightness Sun altitude
Exits shadow 03:23:34 - 199° (SSW) 2,201 5.3 -7.1°
Reaches altitude 10° 03:24:17 10° 196° (SSW) 1,934 5.1 -7.0°
Maximum altitude 03:28:23 41° 127° (SE) 910 4.0 -6.6°
Drops below altitude 10° 03:32:42 10° 58° (ENE) 2,036 7.4 -6.2°
Sets 03:35:08 0° 51° (NE) 2,971 9.2 -6.0°
